Weather past 2 weeks in Bantam, Cocos Islands

Now
79 °F

Drizzle. Overcast.


Feels Like: 82 °F
Forecast: 82 / 84 °F
Wind: 13 mph from East

Location: Cocos Island Airport

Current Time: Feb 28, 2015 at 4:44:53 AM

Latest Report: Feb 28, 2015 at 3:30 AM


Visibility: N/A

Pressure: 29.80 "Hg

Humidity: 89%

Dew point: 75 °F

Location of BantamLocation

Historic Weather in Bantam — Graph

°F

Bantam temperature yesterday

Maximum temperature yesterday: 84 °F (at 9:30 AM)
Minimum temperature yesterday: 79 °F (at 8:00 PM)
Average temperature yesterday: 82 °F

Past Weeks' High & Low Weather Summary

 TemperatureHumidityPressure
High88 °F (Feb 13, 11:00 AM)100% (Feb 16, 12:32 AM)29.92 "Hg (Feb 16, 12:32 AM)
Low75 °F (Feb 20, 1:30 PM)59% (Feb 17, 2:00 PM)29.71 "Hg (Feb 15, 3:00 PM)
Average83 °F76%29.81 "Hg
* Reported Feb 13 2:30 AM — Feb 28 3:00 AM, Bantam, Weather by CustomWeather, © 2015

Note: Actual official high and low records may vary slightly from our data, if they occured in-between our weather recording intervals... More about our weather records

Advertising

Bantam weather history for previous 24 hours

 ConditionsComfort  
Time TempWeatherWind HumidityBarometerVisibility
3:00 AM
Sat, Feb 28
77 °FOvercast.13 mph89%29.80 "HgN/A
2:30 AM77 °FMostly cloudy.14 mph89%29.80 "HgN/A
2:00 AM79 °FMostly cloudy.10 mph84%29.80 "HgN/A
1:30 AM81 °FOvercast.9 mph79%29.80 "HgN/A
1:00 AM81 °FWarm.10 mph79%29.83 "HgN/A
12:30 AM79 °FPassing clouds.7 mph89%29.83 "HgN/A
12:00 AM79 °FPassing clouds.8 mph89%29.83 "HgN/A
11:30 PM
Fri, Feb 27
79 °FPassing clouds.10 mph89%29.83 "HgN/A
11:00 PM79 °FMostly cloudy.10 mph89%29.83 "HgN/A
10:30 PM79 °FMostly cloudy.13 mph89%29.86 "HgN/A
10:00 PM79 °FPartly cloudy.14 mph84%29.86 "HgN/A
9:30 PM79 °FClear.15 mph89%29.83 "HgN/A
9:00 PM79 °FPassing clouds.14 mph89%29.83 "HgN/A
8:30 PM79 °FMostly cloudy.13 mph89%29.83 "HgN/A
8:00 PM79 °FPartly cloudy.15 mph89%29.83 "HgN/A
7:30 PM81 °FPassing clouds.15 mph84%29.80 "HgN/A
7:00 PM81 °FMostly cloudy.13 mph84%29.80 "HgN/A
6:30 PM81 °FMostly cloudy.12 mph79%29.80 "HgN/A
6:00 PM81 °FMostly cloudy.12 mph84%29.77 "HgN/A
5:30 PM82 °FBroken clouds.10 mph79%29.77 "HgN/A
5:00 PM82 °FWarm.13 mph79%29.77 "HgN/A
4:30 PM84 °FPartly sunny.13 mph70%29.77 "HgN/A
4:00 PM84 °FScattered clouds.14 mph70%29.77 "HgN/A
3:30 PM84 °FPartly sunny.14 mph66%29.77 "HgN/A
3:00 PM84 °FScattered clouds.14 mph66%29.77 "HgN/A
2:30 PM84 °FPartly sunny.13 mph66%29.77 "HgN/A
2:00 PM84 °FPartly sunny.14 mph70%29.77 "HgN/A
1:30 PM84 °FPartly sunny.14 mph70%29.77 "HgN/A
1:00 PM84 °FPartly sunny.13 mph70%29.80 "HgN/A
12:30 PM84 °FPartly sunny.14 mph70%29.80 "HgN/A
12:00 PM84 °FScattered showers. Scattered clouds.10 mph70%29.83 "HgN/A
11:30 AM84 °FCloudy.12 mph70%29.83 "HgN/A
10:30 AM82 °FMore clouds than sun.15 mph74%29.83 "HgN/A
10:00 AM82 °FPartly sunny.15 mph74%29.83 "HgN/A
9:30 AM84 °FScattered clouds.15 mph70%29.83 "HgN/A
9:00 AM82 °FPartly sunny.15 mph79%29.83 "HgN/A
8:30 AM82 °FScattered showers. Scattered clouds.15 mph79%29.83 "HgN/A
8:00 AM82 °FBroken clouds.15 mph74%29.83 "HgN/A
7:30 AM82 °FScattered clouds.15 mph74%29.80 "HgN/A
7:00 AM81 °FPassing clouds.13 mph79%29.80 "HgN/A
6:30 AM81 °FScattered showers. Passing clouds.13 mph74%29.80 "HgN/A
6:00 AM81 °FPassing clouds.10 mph74%29.80 "HgN/A
5:30 AM81 °FPassing clouds.12 mph74%29.80 "HgN/A
5:00 AM81 °FPassing clouds.13 mph79%29.80 "HgN/A
4:30 AM81 °FMostly cloudy.14 mph79%29.77 "HgN/A
4:00 AM81 °FOvercast.12 mph74%29.77 "HgN/A
Weather by CustomWeather, © 2015

See weather overviewHow to use our weather pages